Year,Month,Day,Hour,Minute,Value (Times are PST for temperature in C)
2010,08,15,00,00,17.80
2010,08,15,00,01,17.80
2010,08,15,00,02,17.70
2010,08,15,00,03,17.70
2010,08,15,00,04,17.70
2010,08,15,00,05,17.70
2010,08,15,00,06,17.70
2010,08,15,00,07,17.70
2010,08,15,00,08,17.60
2010,08,15,00,09,17.60
2010,08,15,00,10,17.60
2010,08,15,00,11,17.60
2010,08,15,00,12,17.60
2010,08,15,00,13,17.60
2010,08,15,00,14,17.60
2010,08,15,00,15,17.70
2010,08,15,00,16,17.60
2010,08,15,00,17,17.60
2010,08,15,00,18,17.60
2010,08,15,00,19,17.60
2010,08,15,00,20,17.60
2010,08,15,00,21,17.60
2010,08,15,00,22,17.60
2010,08,15,00,23,17.60
2010,08,15,00,24,17.60
2010,08,15,00,25,17.60
2010,08,15,00,26,17.60
2010,08,15,00,27,17.60
2010,08,15,00,28,17.60
2010,08,15,00,29,17.50
2010,08,15,00,30,17.50
2010,08,15,00,31,17.50
2010,08,15,00,32,17.50
2010,08,15,00,33,17.50
2010,08,15,00,34,17.50
2010,08,15,00,35,17.40
2010,08,15,00,36,17.40
2010,08,15,00,37,17.40
2010,08,15,00,38,17.40
2010,08,15,00,39,17.40
2010,08,15,00,40,17.30
2010,08,15,00,41,17.30
2010,08,15,00,42,17.30
2010,08,15,00,43,17.30
2010,08,15,00,44,17.30
2010,08,15,00,45,17.20
2010,08,15,00,46,17.20
2010,08,15,00,47,17.20
2010,08,15,00,48,17.20
2010,08,15,00,49,17.20
2010,08,15,00,50,17.10
2010,08,15,00,51,17.10
2010,08,15,00,52,17.10
2010,08,15,00,53,17.10
2010,08,15,00,54,17.00
2010,08,15,00,55,17.00
2010,08,15,00,56,17.00
2010,08,15,00,57,17.00
2010,08,15,00,58,16.90
2010,08,15,00,59,17.00
2010,08,15,01,00,16.90
2010,08,15,01,01,16.90
2010,08,15,01,02,16.90
2010,08,15,01,03,16.90
2010,08,15,01,04,16.90
2010,08,15,01,05,16.90
2010,08,15,01,06,16.90
2010,08,15,01,07,16.90
2010,08,15,01,08,16.90
2010,08,15,01,09,16.90
2010,08,15,01,10,16.90
2010,08,15,01,11,16.90
2010,08,15,01,12,16.90
2010,08,15,01,13,16.90
2010,08,15,01,14,16.90
2010,08,15,01,15,16.90
2010,08,15,01,16,16.90
2010,08,15,01,17,16.90
2010,08,15,01,18,16.90
2010,08,15,01,19,16.90
2010,08,15,01,20,16.90
2010,08,15,01,21,16.90
2010,08,15,01,22,16.90
2010,08,15,01,23,16.80
2010,08,15,01,24,16.80
2010,08,15,01,25,16.80
2010,08,15,01,26,16.80
2010,08,15,01,27,16.80
2010,08,15,01,28,16.80
2010,08,15,01,29,16.80
2010,08,15,01,30,16.70
2010,08,15,01,31,16.70
2010,08,15,01,32,16.70
2010,08,15,01,33,16.70
2010,08,15,01,34,16.70
2010,08,15,01,35,16.60
2010,08,15,01,36,16.60
2010,08,15,01,37,16.60
2010,08,15,01,38,16.50
2010,08,15,01,39,16.50
2010,08,15,01,40,16.40
2010,08,15,01,41,16.40
2010,08,15,01,42,16.30
2010,08,15,01,43,16.30
2010,08,15,01,44,16.30
2010,08,15,01,45,16.30
2010,08,15,01,46,16.30
2010,08,15,01,47,16.30
2010,08,15,01,48,16.30
2010,08,15,01,49,16.30
2010,08,15,01,50,16.30
2010,08,15,01,51,16.30
2010,08,15,01,52,16.30
2010,08,15,01,53,16.30
2010,08,15,01,54,16.30
2010,08,15,01,55,16.20
2010,08,15,01,56,16.20
2010,08,15,01,57,16.20
2010,08,15,01,58,16.20
2010,08,15,01,59,16.20
2010,08,15,02,00,16.20
2010,08,15,02,01,16.20
2010,08,15,02,02,16.20
2010,08,15,02,03,16.20
2010,08,15,02,04,16.20
2010,08,15,02,05,16.20
2010,08,15,02,06,16.20
2010,08,15,02,07,16.20
2010,08,15,02,08,16.20
2010,08,15,02,09,16.20
2010,08,15,02,10,16.20
2010,08,15,02,11,16.10
2010,08,15,02,12,16.10
2010,08,15,02,13,16.10
2010,08,15,02,14,16.10
2010,08,15,02,15,16.10
2010,08,15,02,16,16.00
2010,08,15,02,17,16.00
2010,08,15,02,18,16.00
2010,08,15,02,19,16.00
2010,08,15,02,20,16.00
2010,08,15,02,21,15.90
2010,08,15,02,22,15.90
2010,08,15,02,23,15.90
2010,08,15,02,24,15.90
2010,08,15,02,25,15.90
2010,08,15,02,26,15.90
2010,08,15,02,27,15.90
2010,08,15,02,28,15.90
2010,08,15,02,29,15.90
2010,08,15,02,30,15.90
2010,08,15,02,31,15.90
2010,08,15,02,32,15.90
2010,08,15,02,33,15.90
2010,08,15,02,34,15.90
2010,08,15,02,35,15.90
2010,08,15,02,36,16.00
2010,08,15,02,37,16.00
2010,08,15,02,38,16.00
2010,08,15,02,39,15.90
2010,08,15,02,40,15.90
2010,08,15,02,41,15.90
2010,08,15,02,42,15.90
2010,08,15,02,43,15.90
2010,08,15,02,44,15.90
2010,08,15,02,45,15.80
2010,08,15,02,46,15.80
2010,08,15,02,47,15.80
2010,08,15,02,48,15.70
2010,08,15,02,49,15.70
2010,08,15,02,50,15.70
2010,08,15,02,51,15.60
2010,08,15,02,52,15.60
2010,08,15,02,53,15.60
2010,08,15,02,54,15.60
2010,08,15,02,55,15.60
2010,08,15,02,56,15.60
2010,08,15,02,57,15.60
2010,08,15,02,58,15.60
2010,08,15,02,59,15.60
2010,08,15,03,00,15.60
2010,08,15,03,01,15.50
2010,08,15,03,02,15.50
2010,08,15,03,03,15.50
2010,08,15,03,04,15.50
2010,08,15,03,05,15.40
2010,08,15,03,06,15.40
2010,08,15,03,07,15.40
2010,08,15,03,08,15.40
2010,08,15,03,09,15.30
2010,08,15,03,10,15.30
2010,08,15,03,11,15.30
2010,08,15,03,12,15.30
2010,08,15,03,13,15.20
2010,08,15,03,14,15.20
2010,08,15,03,15,15.20
2010,08,15,03,16,15.20
2010,08,15,03,17,15.20
2010,08,15,03,18,15.20
2010,08,15,03,19,15.20
2010,08,15,03,20,15.10
2010,08,15,03,21,15.10
2010,08,15,03,22,15.20
2010,08,15,03,23,15.20
2010,08,15,03,24,15.20
2010,08,15,03,25,15.20
2010,08,15,03,26,15.20
2010,08,15,03,27,15.20
2010,08,15,03,28,15.20
2010,08,15,03,29,15.20
2010,08,15,03,30,15.20
2010,08,15,03,31,15.20
2010,08,15,03,32,15.20
2010,08,15,03,33,15.20
2010,08,15,03,34,15.20
2010,08,15,03,35,15.20
2010,08,15,03,36,15.20
2010,08,15,03,37,15.20
2010,08,15,03,38,15.10
2010,08,15,03,39,15.10
2010,08,15,03,40,15.10
2010,08,15,03,41,15.10
2010,08,15,03,42,15.00
2010,08,15,03,43,15.00
2010,08,15,03,44,15.00
2010,08,15,03,45,15.00
2010,08,15,03,46,15.00
2010,08,15,03,47,15.00
2010,08,15,03,48,15.00
2010,08,15,03,49,15.00
2010,08,15,03,50,15.00
2010,08,15,03,51,15.00
2010,08,15,03,52,15.00
2010,08,15,03,53,15.00
2010,08,15,03,54,15.00
2010,08,15,03,55,15.00
2010,08,15,03,56,15.00
2010,08,15,03,57,15.00
2010,08,15,03,58,15.00
2010,08,15,03,59,15.00
2010,08,15,04,00,15.00
2010,08,15,04,01,15.00
2010,08,15,04,02,15.00
2010,08,15,04,03,15.00
2010,08,15,04,04,15.00
2010,08,15,04,05,15.00
2010,08,15,04,06,15.00
2010,08,15,04,07,15.00
2010,08,15,04,08,15.00
2010,08,15,04,09,15.00
2010,08,15,04,10,15.00
2010,08,15,04,11,15.00
2010,08,15,04,12,15.00
2010,08,15,04,13,14.90
2010,08,15,04,14,14.90
2010,08,15,04,15,14.90
2010,08,15,04,16,14.90
2010,08,15,04,17,14.90
2010,08,15,04,18,14.90
2010,08,15,04,19,14.90
2010,08,15,04,20,14.80
2010,08,15,04,21,14.80
2010,08,15,04,22,14.80
2010,08,15,04,23,14.80
2010,08,15,04,24,14.80
2010,08,15,04,25,14.80
2010,08,15,04,26,14.80
2010,08,15,04,27,14.80
2010,08,15,04,28,14.80
2010,08,15,04,29,14.80
2010,08,15,04,30,14.90
2010,08,15,04,31,14.90
2010,08,15,04,32,15.00
2010,08,15,04,33,15.00
2010,08,15,04,34,15.00
2010,08,15,04,35,15.00
2010,08,15,04,36,15.00
2010,08,15,04,37,15.00
2010,08,15,04,38,15.00
2010,08,15,04,39,15.00
2010,08,15,04,40,15.00
2010,08,15,04,41,15.00
2010,08,15,04,42,15.00
2010,08,15,04,43,15.00
2010,08,15,04,44,15.00
2010,08,15,04,45,15.00
2010,08,15,04,46,15.00
2010,08,15,04,47,15.00
2010,08,15,04,48,15.00
2010,08,15,04,49,15.00
2010,08,15,04,50,15.00
2010,08,15,04,51,15.00
2010,08,15,04,52,15.00
2010,08,15,04,53,15.00
2010,08,15,04,54,15.00
2010,08,15,04,55,15.00
2010,08,15,04,56,15.00
2010,08,15,04,57,15.00
2010,08,15,04,58,15.00
2010,08,15,04,59,14.90
2010,08,15,05,00,14.90
2010,08,15,05,01,14.80
2010,08,15,05,02,14.80
2010,08,15,05,03,14.80
2010,08,15,05,04,14.80
2010,08,15,05,05,14.70
2010,08,15,05,06,14.70
2010,08,15,05,07,14.70
2010,08,15,05,08,14.70
2010,08,15,05,09,14.60
2010,08,15,05,10,14.60
2010,08,15,05,11,14.60
2010,08,15,05,12,14.60
2010,08,15,05,13,14.60
2010,08,15,05,14,14.60
2010,08,15,05,15,14.60
2010,08,15,05,16,14.60
2010,08,15,05,17,14.60
2010,08,15,05,18,14.60
2010,08,15,05,19,14.60
2010,08,15,05,20,14.60
2010,08,15,05,21,14.60
2010,08,15,05,22,14.60
2010,08,15,05,23,14.70
2010,08,15,05,24,14.70
2010,08,15,05,25,14.70
2010,08,15,05,26,14.70
2010,08,15,05,27,14.70
2010,08,15,05,28,14.70
2010,08,15,05,29,14.70
2010,08,15,05,30,14.70
2010,08,15,05,31,14.80
2010,08,15,05,32,14.80
2010,08,15,05,33,14.80
2010,08,15,05,34,14.90
2010,08,15,05,35,15.00
2010,08,15,05,36,15.00
2010,08,15,05,37,15.00
2010,08,15,05,38,15.00
2010,08,15,05,39,15.00
2010,08,15,05,40,15.00
2010,08,15,05,41,14.90
2010,08,15,05,42,14.80
2010,08,15,05,43,14.70
2010,08,15,05,44,14.70
2010,08,15,05,45,14.60
2010,08,15,05,46,14.60
2010,08,15,05,47,14.50
2010,08,15,05,48,14.50
2010,08,15,05,49,14.50
2010,08,15,05,50,14.50
2010,08,15,05,51,14.40
2010,08,15,05,52,14.40
2010,08,15,05,53,14.40
2010,08,15,05,54,14.40
2010,08,15,05,55,14.40
2010,08,15,05,56,14.40
2010,08,15,05,57,14.40
2010,08,15,05,58,14.50
2010,08,15,05,59,14.50
2010,08,15,06,00,14.50
2010,08,15,06,01,14.50
2010,08,15,06,02,14.50
2010,08,15,06,03,14.50
2010,08,15,06,04,14.50
2010,08,15,06,05,14.60
2010,08,15,06,06,14.60
2010,08,15,06,07,14.60
2010,08,15,06,08,14.60
2010,08,15,06,09,14.60
2010,08,15,06,10,14.60
2010,08,15,06,11,14.60
2010,08,15,06,12,14.60
2010,08,15,06,13,14.60
2010,08,15,06,14,14.70
2010,08,15,06,15,14.70
2010,08,15,06,16,14.70
2010,08,15,06,17,14.70
2010,08,15,06,18,14.60
2010,08,15,06,19,14.60
2010,08,15,06,20,14.60
2010,08,15,06,21,14.60
2010,08,15,06,22,14.60
2010,08,15,06,23,14.70
2010,08,15,06,24,14.70
2010,08,15,06,25,14.70
2010,08,15,06,26,14.70
2010,08,15,06,27,14.70
2010,08,15,06,28,14.70
2010,08,15,06,29,14.80
2010,08,15,06,30,14.80
2010,08,15,06,31,14.80
2010,08,15,06,32,14.80
2010,08,15,06,33,14.80
2010,08,15,06,34,14.80
2010,08,15,06,35,14.80
2010,08,15,06,36,14.80
2010,08,15,06,37,14.80
2010,08,15,06,38,14.80
2010,08,15,06,39,14.80
2010,08,15,06,40,14.80
2010,08,15,06,41,14.80
2010,08,15,06,42,14.80
2010,08,15,06,43,14.80
2010,08,15,06,44,14.80
2010,08,15,06,45,14.80
2010,08,15,06,46,14.80
2010,08,15,06,47,14.80
2010,08,15,06,48,14.80
2010,08,15,06,49,14.80
2010,08,15,06,50,14.80
2010,08,15,06,51,14.80
2010,08,15,06,52,14.80
2010,08,15,06,53,14.80
2010,08,15,06,54,14.80
2010,08,15,06,55,14.80
2010,08,15,06,56,14.80
2010,08,15,06,57,14.80
2010,08,15,06,58,14.90
2010,08,15,06,59,14.90
2010,08,15,07,00,14.90
2010,08,15,07,01,14.90
2010,08,15,07,02,14.90
2010,08,15,07,03,14.90
2010,08,15,07,04,15.00
2010,08,15,07,05,15.00
2010,08,15,07,06,15.00
2010,08,15,07,07,15.00
2010,08,15,07,08,15.00
2010,08,15,07,09,15.00
2010,08,15,07,10,15.10
2010,08,15,07,11,15.20
2010,08,15,07,12,15.30
2010,08,15,07,13,15.40
2010,08,15,07,14,15.50
2010,08,15,07,15,15.60
2010,08,15,07,16,15.70
2010,08,15,07,17,15.80
2010,08,15,07,18,15.90
2010,08,15,07,19,16.00
2010,08,15,07,20,16.10
2010,08,15,07,21,16.20
2010,08,15,07,22,16.20
2010,08,15,07,23,16.20
2010,08,15,07,24,16.20
2010,08,15,07,25,16.30
2010,08,15,07,26,16.30
2010,08,15,07,27,16.40
2010,08,15,07,28,16.50
2010,08,15,07,29,16.60
2010,08,15,07,30,16.70
2010,08,15,07,31,16.80
2010,08,15,07,32,16.80
2010,08,15,07,33,16.90
2010,08,15,07,34,17.00
2010,08,15,07,35,17.10
2010,08,15,07,36,17.10
2010,08,15,07,37,17.20
2010,08,15,07,38,17.30
2010,08,15,07,39,17.30
2010,08,15,07,40,17.40
2010,08,15,07,41,17.40
2010,08,15,07,42,17.50
2010,08,15,07,43,17.60
2010,08,15,07,44,17.60
2010,08,15,07,45,17.70
2010,08,15,07,46,17.70
2010,08,15,07,47,17.80
2010,08,15,07,48,17.90
2010,08,15,07,49,17.90
2010,08,15,07,50,18.00
2010,08,15,07,51,18.20
2010,08,15,07,52,18.20
2010,08,15,07,53,18.30
2010,08,15,07,54,18.40
2010,08,15,07,55,18.50
2010,08,15,07,56,18.70
2010,08,15,07,57,18.80
2010,08,15,07,58,18.90
2010,08,15,07,59,18.90
2010,08,15,08,00,19.00
2010,08,15,08,01,19.10
2010,08,15,08,02,19.10
2010,08,15,08,03,19.20
2010,08,15,08,04,19.30
2010,08,15,08,05,19.30
2010,08,15,08,06,19.40
2010,08,15,08,07,19.50
2010,08,15,08,08,19.50
2010,08,15,08,09,19.60
2010,08,15,08,10,19.70
2010,08,15,08,11,19.80
2010,08,15,08,12,19.90
2010,08,15,08,13,20.00
2010,08,15,08,14,20.20
2010,08,15,08,15,20.40
2010,08,15,08,16,20.60
2010,08,15,08,17,20.80
2010,08,15,08,18,21.10
2010,08,15,08,19,21.40
2010,08,15,08,20,21.80
2010,08,15,08,21,22.00
2010,08,15,08,22,22.30
2010,08,15,08,23,22.50
2010,08,15,08,24,22.70
2010,08,15,08,25,22.90
2010,08,15,08,26,23.00
2010,08,15,08,27,23.20
2010,08,15,08,28,23.30
2010,08,15,08,29,23.40
2010,08,15,08,30,23.50
2010,08,15,08,31,23.60
2010,08,15,08,32,23.70
2010,08,15,08,33,23.70
2010,08,15,08,34,23.80
2010,08,15,08,35,23.80
2010,08,15,08,36,23.80
2010,08,15,08,37,23.90
2010,08,15,08,38,23.90
2010,08,15,08,39,24.00
2010,08,15,08,40,24.10
2010,08,15,08,41,24.10
2010,08,15,08,42,24.20
2010,08,15,08,43,24.20
2010,08,15,08,44,24.20
2010,08,15,08,45,24.20
2010,08,15,08,46,24.30
2010,08,15,08,47,24.30
2010,08,15,08,48,24.40
2010,08,15,08,49,24.40
2010,08,15,08,50,24.40
2010,08,15,08,51,24.40
2010,08,15,08,52,24.40
2010,08,15,08,53,24.40
2010,08,15,08,54,24.50
2010,08,15,08,55,24.50
2010,08,15,08,56,24.50
2010,08,15,08,57,24.60
2010,08,15,08,58,24.60
2010,08,15,08,59,24.60
2010,08,15,09,00,24.60
2010,08,15,09,01,24.70
2010,08,15,09,02,24.70
2010,08,15,09,03,24.80
2010,08,15,09,04,24.80
2010,08,15,09,05,24.80
2010,08,15,09,06,24.80
2010,08,15,09,07,24.80
2010,08,15,09,08,24.80
2010,08,15,09,09,24.80
2010,08,15,09,10,24.80
2010,08,15,09,11,24.80
2010,08,15,09,12,24.90
2010,08,15,09,13,24.90
2010,08,15,09,14,25.00
2010,08,15,09,15,25.10
2010,08,15,09,16,25.10
2010,08,15,09,17,25.00
2010,08,15,09,18,25.10
2010,08,15,09,19,25.10
2010,08,15,09,20,25.10
2010,08,15,09,21,25.10
2010,08,15,09,22,25.20
2010,08,15,09,23,25.20
2010,08,15,09,24,25.20
2010,08,15,09,25,25.20
2010,08,15,09,26,25.20
2010,08,15,09,27,25.20
2010,08,15,09,28,25.20
2010,08,15,09,29,25.20
2010,08,15,09,30,25.20
2010,08,15,09,31,25.30
2010,08,15,09,32,25.30
2010,08,15,09,33,25.30
2010,08,15,09,34,25.30
2010,08,15,09,35,25.30
2010,08,15,09,36,25.40
2010,08,15,09,37,25.40
2010,08,15,09,38,25.40
2010,08,15,09,39,25.50
2010,08,15,09,40,25.50
2010,08,15,09,41,25.50
2010,08,15,09,42,25.50
2010,08,15,09,43,25.60
2010,08,15,09,44,25.60
2010,08,15,09,45,25.70
2010,08,15,09,46,25.70
2010,08,15,09,47,25.70
2010,08,15,09,48,25.70
2010,08,15,09,49,25.70
2010,08,15,09,50,25.70
2010,08,15,09,51,25.70
2010,08,15,09,52,25.70
2010,08,15,09,53,25.70
2010,08,15,09,54,25.70
2010,08,15,09,55,25.70
2010,08,15,09,56,25.70
2010,08,15,09,57,25.80
2010,08,15,09,58,25.80
2010,08,15,09,59,25.80
2010,08,15,10,00,25.80
2010,08,15,10,01,25.80
2010,08,15,10,02,25.90
2010,08,15,10,03,25.90
2010,08,15,10,04,25.90
2010,08,15,10,05,25.90
2010,08,15,10,06,25.80
2010,08,15,10,07,25.80
2010,08,15,10,08,25.70
2010,08,15,10,09,25.70
2010,08,15,10,10,25.70
2010,08,15,10,11,25.70
2010,08,15,10,12,25.80
2010,08,15,10,13,25.70
2010,08,15,10,14,25.80
2010,08,15,10,15,25.90
2010,08,15,10,16,25.90
2010,08,15,10,17,25.90
2010,08,15,10,18,26.00
2010,08,15,10,19,26.10
2010,08,15,10,20,26.10
2010,08,15,10,21,26.10
2010,08,15,10,22,26.10
2010,08,15,10,23,26.20
2010,08,15,10,24,26.20
2010,08,15,10,25,26.20
2010,08,15,10,26,26.20
2010,08,15,10,27,26.30
2010,08,15,10,28,26.30
2010,08,15,10,29,26.30
2010,08,15,10,30,26.30
2010,08,15,10,31,26.30
2010,08,15,10,32,26.30
2010,08,15,10,33,26.30
2010,08,15,10,34,26.40
2010,08,15,10,35,26.40
2010,08,15,10,36,26.50
2010,08,15,10,37,26.50
2010,08,15,10,38,26.60
2010,08,15,10,39,26.60
2010,08,15,10,40,26.70
2010,08,15,10,41,26.70
2010,08,15,10,42,26.70
2010,08,15,10,43,26.70
2010,08,15,10,44,26.80
2010,08,15,10,45,26.80
2010,08,15,10,46,27.00
2010,08,15,10,47,27.10
2010,08,15,10,48,27.10
2010,08,15,10,49,27.10
2010,08,15,10,50,27.20
2010,08,15,10,51,27.20
2010,08,15,10,52,27.30
2010,08,15,10,53,27.30
2010,08,15,10,54,27.30
2010,08,15,10,55,27.30
2010,08,15,10,56,27.20
2010,08,15,10,57,27.20
2010,08,15,10,58,27.20
2010,08,15,10,59,27.20
2010,08,15,11,00,27.20
2010,08,15,11,01,27.30
2010,08,15,11,02,27.20
2010,08,15,11,03,27.20
2010,08,15,11,04,27.30
2010,08,15,11,05,27.30
2010,08,15,11,06,27.40
2010,08,15,11,07,27.50
2010,08,15,11,08,27.60
2010,08,15,11,09,27.70
2010,08,15,11,10,27.70
2010,08,15,11,11,27.80
2010,08,15,11,12,27.80
2010,08,15,11,13,27.90
2010,08,15,11,14,27.90
2010,08,15,11,15,27.90
2010,08,15,11,16,27.90
2010,08,15,11,17,27.90
2010,08,15,11,18,27.90
2010,08,15,11,19,27.90
2010,08,15,11,20,27.90
2010,08,15,11,21,27.90
2010,08,15,11,22,28.00
2010,08,15,11,23,28.00
2010,08,15,11,24,28.00
2010,08,15,11,25,28.10
2010,08,15,11,26,28.10
2010,08,15,11,27,28.20
2010,08,15,11,28,28.30
2010,08,15,11,29,28.40
2010,08,15,11,30,28.40
2010,08,15,11,31,28.50
2010,08,15,11,32,28.60
2010,08,15,11,33,28.70
2010,08,15,11,34,28.70
2010,08,15,11,35,28.70
2010,08,15,11,36,28.70
2010,08,15,11,37,28.70
2010,08,15,11,38,28.70
2010,08,15,11,39,28.70
2010,08,15,11,40,28.80
2010,08,15,11,41,28.80
2010,08,15,11,42,28.80
2010,08,15,11,43,28.80
2010,08,15,11,44,28.70
2010,08,15,11,45,28.80
2010,08,15,11,46,28.80
2010,08,15,11,47,28.80
2010,08,15,11,48,28.80
2010,08,15,11,49,28.70
2010,08,15,11,50,28.70
2010,08,15,11,51,28.70
2010,08,15,11,52,28.60
2010,08,15,11,53,28.60
2010,08,15,11,54,28.50
2010,08,15,11,55,28.50
2010,08,15,11,56,28.40
2010,08,15,11,57,28.40
2010,08,15,11,58,28.50
2010,08,15,11,59,28.60
2010,08,15,12,00,28.60
2010,08,15,12,01,28.60
2010,08,15,12,02,28.70
2010,08,15,12,03,28.70
2010,08,15,12,04,28.70
2010,08,15,12,05,28.80
2010,08,15,12,06,28.80
2010,08,15,12,07,28.90
2010,08,15,12,08,29.00
2010,08,15,12,09,29.10
2010,08,15,12,10,29.10
2010,08,15,12,11,29.10
2010,08,15,12,12,29.10
2010,08,15,12,13,29.10
2010,08,15,12,14,29.10
2010,08,15,12,15,29.10
2010,08,15,12,16,29.10
2010,08,15,12,17,29.10
2010,08,15,12,18,29.10
2010,08,15,12,19,29.10
2010,08,15,12,20,29.30
2010,08,15,12,21,29.40
2010,08,15,12,22,29.50
2010,08,15,12,23,29.60
2010,08,15,12,24,29.70
2010,08,15,12,25,29.60
2010,08,15,12,26,29.60
2010,08,15,12,27,29.60
2010,08,15,12,28,29.70
2010,08,15,12,29,29.70
2010,08,15,12,30,29.80
2010,08,15,12,31,29.80
2010,08,15,12,32,29.90
2010,08,15,12,33,29.90
2010,08,15,12,34,30.00
2010,08,15,12,35,30.00
2010,08,15,12,36,30.00
2010,08,15,12,37,30.00
2010,08,15,12,38,29.90
2010,08,15,12,39,29.90
2010,08,15,12,40,29.90
2010,08,15,12,41,29.90
2010,08,15,12,42,29.90
2010,08,15,12,43,29.90
2010,08,15,12,44,29.90
2010,08,15,12,45,29.80
2010,08,15,12,46,29.80
2010,08,15,12,47,29.80
2010,08,15,12,48,29.70
2010,08,15,12,49,29.70
2010,08,15,12,50,29.60
2010,08,15,12,51,29.60
2010,08,15,12,52,29.60
2010,08,15,12,53,29.70
2010,08,15,12,54,29.80
2010,08,15,12,55,30.00
2010,08,15,12,56,30.00
2010,08,15,12,57,30.00
2010,08,15,12,58,30.00
2010,08,15,12,59,30.00
2010,08,15,13,00,30.00
2010,08,15,13,01,29.90
2010,08,15,13,02,29.90
2010,08,15,13,03,29.90
2010,08,15,13,04,29.90
2010,08,15,13,05,29.90
2010,08,15,13,06,30.00
2010,08,15,13,07,30.00
2010,08,15,13,08,29.90
2010,08,15,13,09,29.90
2010,08,15,13,10,29.80
2010,08,15,13,11,29.70
2010,08,15,13,12,29.60
2010,08,15,13,13,29.50
2010,08,15,13,14,29.50
2010,08,15,13,15,29.40
2010,08,15,13,16,29.40
2010,08,15,13,17,29.40
2010,08,15,13,18,29.50
2010,08,15,13,19,29.60
2010,08,15,13,20,29.70
2010,08,15,13,21,29.70
2010,08,15,13,22,29.80
2010,08,15,13,23,29.80
2010,08,15,13,24,29.80
2010,08,15,13,25,29.90
2010,08,15,13,26,29.90
2010,08,15,13,27,29.90
2010,08,15,13,28,29.90
2010,08,15,13,29,29.90
2010,08,15,13,30,29.90
2010,08,15,13,31,30.00
2010,08,15,13,32,30.00
2010,08,15,13,33,30.10
2010,08,15,13,34,30.10
2010,08,15,13,35,30.20
2010,08,15,13,36,30.30
2010,08,15,13,37,30.40
2010,08,15,13,38,30.50
2010,08,15,13,39,30.60
2010,08,15,13,40,30.60
2010,08,15,13,41,30.70
2010,08,15,13,42,30.80
2010,08,15,13,43,30.80
2010,08,15,13,44,30.80
2010,08,15,13,45,30.80
2010,08,15,13,46,30.80
2010,08,15,13,47,30.80
2010,08,15,13,48,30.80
2010,08,15,13,49,30.90
2010,08,15,13,50,30.90
2010,08,15,13,51,30.80
2010,08,15,13,52,30.80
2010,08,15,13,53,30.80
2010,08,15,13,54,30.80
2010,08,15,13,55,30.70
2010,08,15,13,56,30.70
2010,08,15,13,57,30.70
2010,08,15,13,58,30.60
2010,08,15,13,59,30.60
2010,08,15,14,00,30.60
2010,08,15,14,01,30.50
2010,08,15,14,02,30.50
2010,08,15,14,03,30.60
2010,08,15,14,04,30.60
2010,08,15,14,05,30.60
2010,08,15,14,06,30.60
2010,08,15,14,07,30.70
2010,08,15,14,08,30.80
2010,08,15,14,09,30.90
2010,08,15,14,10,31.00
2010,08,15,14,11,31.00
2010,08,15,14,12,31.00
2010,08,15,14,13,31.00
2010,08,15,14,14,31.10
2010,08,15,14,15,31.20
2010,08,15,14,16,31.30
2010,08,15,14,17,31.30
2010,08,15,14,18,31.30
2010,08,15,14,19,31.30
2010,08,15,14,20,31.30
2010,08,15,14,21,31.40
2010,08,15,14,22,31.40
2010,08,15,14,23,31.30
2010,08,15,14,24,31.20
2010,08,15,14,25,31.20
2010,08,15,14,26,31.20
2010,08,15,14,27,31.30
2010,08,15,14,28,31.30
2010,08,15,14,29,31.20
2010,08,15,14,30,31.20
2010,08,15,14,31,31.20
2010,08,15,14,32,31.20
2010,08,15,14,33,31.20
2010,08,15,14,34,31.20
2010,08,15,14,35,31.30
2010,08,15,14,36,31.30
2010,08,15,14,37,31.30
2010,08,15,14,38,31.30
2010,08,15,14,39,31.40
2010,08,15,14,40,31.50
2010,08,15,14,41,31.50
2010,08,15,14,42,31.50
2010,08,15,14,43,31.40
2010,08,15,14,44,31.40
2010,08,15,14,45,31.40
2010,08,15,14,46,31.40
2010,08,15,14,47,31.50
2010,08,15,14,48,31.50
2010,08,15,14,49,31.60
2010,08,15,14,50,31.60
2010,08,15,14,51,31.70
2010,08,15,14,52,31.70
2010,08,15,14,53,31.60
2010,08,15,14,54,31.70
2010,08,15,14,55,31.70
2010,08,15,14,56,31.70
2010,08,15,14,57,31.80
2010,08,15,14,58,31.80
2010,08,15,14,59,31.80
2010,08,15,15,00,31.80
2010,08,15,15,01,31.80
2010,08,15,15,02,31.80
2010,08,15,15,03,31.80
2010,08,15,15,04,31.80
2010,08,15,15,05,31.80
2010,08,15,15,06,31.80
2010,08,15,15,07,31.80
2010,08,15,15,08,31.80
2010,08,15,15,09,31.80
2010,08,15,15,10,31.90
2010,08,15,15,11,31.90
2010,08,15,15,12,31.90
2010,08,15,15,13,31.90
2010,08,15,15,14,31.90
2010,08,15,15,15,31.90
2010,08,15,15,16,31.90
2010,08,15,15,17,31.90
2010,08,15,15,18,31.90
2010,08,15,15,19,32.00
2010,08,15,15,20,32.10
2010,08,15,15,21,32.20
2010,08,15,15,22,32.30
2010,08,15,15,23,32.50
2010,08,15,15,24,32.70
2010,08,15,15,25,32.80
2010,08,15,15,26,32.80
2010,08,15,15,27,32.80
2010,08,15,15,28,32.80
2010,08,15,15,29,32.70
2010,08,15,15,30,32.70
2010,08,15,15,31,32.60
2010,08,15,15,32,32.60
2010,08,15,15,33,32.60
2010,08,15,15,34,32.70
2010,08,15,15,35,32.70
2010,08,15,15,36,32.70
2010,08,15,15,37,32.70
2010,08,15,15,38,32.70
2010,08,15,15,39,32.60
2010,08,15,15,40,32.60
2010,08,15,15,41,32.60
2010,08,15,15,42,32.60
2010,08,15,15,43,32.70
2010,08,15,15,44,32.70
2010,08,15,15,45,32.70
2010,08,15,15,46,32.60
2010,08,15,15,47,32.60
2010,08,15,15,48,32.60
2010,08,15,15,49,32.60
2010,08,15,15,50,32.60
2010,08,15,15,51,32.60
2010,08,15,15,52,32.60
2010,08,15,15,53,32.70
2010,08,15,15,54,32.80
2010,08,15,15,55,32.70
2010,08,15,15,56,32.50
2010,08,15,15,57,32.40
2010,08,15,15,58,32.30
2010,08,15,15,59,32.30
2010,08,15,16,00,32.20
2010,08,15,16,01,32.10
2010,08,15,16,02,31.90
2010,08,15,16,03,31.80
2010,08,15,16,04,31.80
2010,08,15,16,05,31.70
2010,08,15,16,06,31.60
2010,08,15,16,07,31.40
2010,08,15,16,08,31.20
2010,08,15,16,09,31.20
2010,08,15,16,10,31.10
2010,08,15,16,11,31.00
2010,08,15,16,12,31.00
2010,08,15,16,13,30.90
2010,08,15,16,14,30.90
2010,08,15,16,15,30.90
2010,08,15,16,16,30.90
2010,08,15,16,17,30.80
2010,08,15,16,18,30.90
2010,08,15,16,19,31.00
2010,08,15,16,20,31.00
2010,08,15,16,21,31.00
2010,08,15,16,22,30.90
2010,08,15,16,23,30.90
2010,08,15,16,24,30.80
2010,08,15,16,25,30.80
2010,08,15,16,26,30.70
2010,08,15,16,27,30.60
2010,08,15,16,28,30.60
2010,08,15,16,29,30.50
2010,08,15,16,30,30.50
2010,08,15,16,31,30.50
2010,08,15,16,32,30.50
2010,08,15,16,33,30.40
2010,08,15,16,34,30.50
2010,08,15,16,35,30.60
2010,08,15,16,36,30.60
2010,08,15,16,37,30.70
2010,08,15,16,38,30.70
2010,08,15,16,39,30.60
2010,08,15,16,40,30.60
2010,08,15,16,41,30.60
2010,08,15,16,42,30.60
2010,08,15,16,43,30.60
2010,08,15,16,44,30.60
2010,08,15,16,45,30.60
2010,08,15,16,46,30.60
2010,08,15,16,47,30.70
2010,08,15,16,48,30.80
2010,08,15,16,49,30.90
2010,08,15,16,50,30.90
2010,08,15,16,51,30.90
2010,08,15,16,52,30.90
2010,08,15,16,53,30.80
2010,08,15,16,54,30.80
2010,08,15,16,55,30.90
2010,08,15,16,56,30.90
2010,08,15,16,57,30.90
2010,08,15,16,58,30.90
2010,08,15,16,59,30.80
2010,08,15,17,00,30.70
2010,08,15,17,01,30.80
2010,08,15,17,02,30.80
2010,08,15,17,03,30.70
2010,08,15,17,04,30.60
2010,08,15,17,05,30.60
2010,08,15,17,06,30.60
2010,08,15,17,07,30.60
2010,08,15,17,08,30.60
2010,08,15,17,09,30.60
2010,08,15,17,10,30.60
2010,08,15,17,11,30.70
2010,08,15,17,12,30.70
2010,08,15,17,13,30.70
2010,08,15,17,14,30.80
2010,08,15,17,15,30.90
2010,08,15,17,16,31.00
2010,08,15,17,17,30.90
2010,08,15,17,18,31.00
2010,08,15,17,19,31.00